Погода в Мамакане

Погода в Мамакане : погода сейчас, прогноз погоды и архив. Всё, что Вы хотите узнать о погоде в Мамакане!

Поиск расширенной информации на нашем сайте:

Другие новости

Новости СМИ2

Главная страница сайта

Новости сайта

03.07.2017

Напоминаем, что на нашем специализированном сайте Метеоцентр.Азия вы можете получить высокодетализированные автоматические прогнозы погоды по пунктам России, СНГ и мира в авиационном формате (включающие направление и скорость ветра, видимость, явления погоды, количество и форму облачности, нижнюю и верхнюю границу облачности).


Погода в Мамакане - сегодня

Время (UTC), дата Ветер
(°,м/с) 
Видим.   Явления Облачность Т
(°С)
Тd
(°С)
f(%) Тe
(°С)
Pmin
(гПа)
dP
(гПа)
Po
(мм)
O2
(г/м3)
Тmin Tmax R s Состояние
почвы
06 20.07.18 070 (В) 20000 м  дым  9/3 1000 м кучево-дожд., верхняя 
[Cb cap|Ci fib]
+30.4 +18 48 +46  997.5  -2.4  728  260           
09 20.07.18 тихо ()   20000 м  дым  9/4 1000 м кучево-дожд., верхняя 
[Cb cap|Ci fib]
+31.7 +20.5 52 +53  995.9  -1.4  727  257           
12 20.07.18 260 (З) 20000 м  дым  9/5 1000 м кучево-дожд., верхняя 
[Cb cap|Cs]
+26.4 +21.5 74 +50  995.7  -0.7  726  261    +33.5       
15 20.07.18 тихо ()   н/о    9/4 1000 м кучево-дожд., средняя, верхняя 
[Cb cap|Ac lent|Ci fib]
+19.6 +18 90 +35  996.7  0.3  727  269           
18 20.07.18 тихо ()   н/о    10/8 1000 м кучево-дожд., верхняя 
[Cb cap|Cs]
+17.4 +16.7 96 +30  996.6  -0.3  726  271           
21 20.07.18 тихо ()   20000 м  дым  10/8 1000 м кучево-дожд., верхняя 
[Cb cap|Cs]
+16.7 +16 96 +28  995.9  -0.8  726  272           
00 21.07.18 070 (В) 20000 м  слаб. ливневой дождь  10/8 1000 м кучево-дожд., верхняя 
[Cb cap|Cs]
+17.1 +16.8 98 +32  996  0.1  726  271  +16.7    0.6    влажная 
03 21.07.18 020 (С) 20000 м  в посл. час ливневой дождь  10/8 1000 м кучево-дожд., верхняя 
[Cb cap|Cs]
+19.5 +17.9 90 +36  995.2  -0.5  725  269           
06 21.07.18 тихо ()   20000 м  слаб. ливневой дождь  10/10 600 м кучево-дожд. 
[Cb cap]
+20.4 +19 92 +38  994.7  -0.4  725  267           
09 21.07.18 080 (В) 20000 м  дым{ливн. осадки}  9/4 1000 м кучево-дожд., средняя, верхняя 
[Cb cap|Ac lent|Cs]
+22.3 +18.5 79 +39  993.6  -0.8  725  266           
12 21.07.18 260 (З) 5-10{10}  10 км  слаб. ливневой дождь  10/10 600 м кучево-дожд. 
[Cb cap]
+20 +18.6 92 +37  995.4  1.4  726  268    +23.1     
18 21.07.18 280 (З) н/о  {ливн. осадки}  10/10 1000 м кучево-дожд. 
[Cb cap]
+11.5 +6.9 73 +13  1003.8  2.7  731  281           
21 21.07.18 250 (З) 20000 м    10/10 1000 м кучево-дожд. 
[Cb cap]
+10.6 +8.4 86 +11  1005.8  1.8  732  283           
00 22.07.18 270 (З) 20000 м    10/10 1000 м кучево-дожд. 
[Cb cap]
+10.5 +5.5 71 +12  1007.2  1.4  734  284  +10.5      влажная 
03 22.07.18 230 (ЮЗ) 20000 м    10/10 600 м кучево-дожд. 
[Cb cap]
+9.6 +7.7 88 +11  1009.2  1.8  735  285           
06 22.07.18 280 (З) 20000 м    10/10 1000 м кучево-дожд. 
[Cb cap]
+10.5 +6.2 75 +11  1010.7  1.6  736  285           
09 22.07.18 270 (З) 20000 м    10/10 1000 м кучево-дожд. 
[Cb cap]
+11 +7.9 81 +12  1011.9  1.1  737  284           
12 22.07.18 тихо ()   20000 м    10/10 1000 м кучево-дожд. 
[Cb cap]
+10.5 +7.6 82 +11  1013.2  1.3  738  285    +11.1       
15 22.07.18 тихо ()   н/о    10/10 1000 м кучево-дожд. 
[Cb cap]
+9.8 +8.4 91 +10  1013.7  0.4  738  286           
18 22.07.18 240 (ЮЗ) н/о    10/10 1000 м кучево-дожд. 
[Cb cap]
+9.3 +8.5 95 +10  1013.6  -0.1  738  286           
21 22.07.18 тихо ()   20000 м    10/8 600 м кучево-дожд., верхняя 
[Cb cap|Cs]
+9.5 +8.3 92 +10  1013.5  -0.1  738  286           
00 23.07.18 080 (В) 20000 м    10/10 600 м кучево-дожд. 
[Cb cap]
+9.9 +8.7 92 +11  1013.1  -0.4  738  285  +9.1        влажная 
03 23.07.18 080 (В) 20000 м  дым  9/6 1000 м кучево-дожд., верхняя 
[Cb cap|Cs]
+13.6 +9.3 75 +16  1011.5  -1.2  737  281           
06 23.07.18 090 (В) 20000 м  дым  9/1 1000 м кучево-дожд., верхняя 
[Cb cap|Ci fib]
+17.5 +11.9 70 +22  1008.7  -2.3  735  276           
09 23.07.18 050 (СВ) 20000 м  дым  10/8 1000 м кучево-дожд., верхняя 
[Cb cap|Cs]
+17.7 +12.9 73 +25  1007.8  -0.9  734  275           
Время (UTC), дата Ветер
(°,м/с) 
Видим.   Явления Облачность Т
(°С)
Тd
(°С)
f(%) Тe
(°С)
Pmin
(гПа)
dP
(гПа)
Po
(мм)
O2
(г/м3)
Тmin Tmax R s Состояние
почвы

Для получения пояснительной информации подведите курсор к названию столбца.

ПОГОДА в Мамакане - архив

Всё, что Вы хотите узнать о погоде в Мамакане - удобно и подробно!

Выберите нужную дату (начиная с 1 января 2015* года) и нажмите кнопку "Найти".
Будут отображены архивные сводки погоды по пункту Мамакан, начиная с указанной даты.


Отображать данные в формате CSV (для использования в таблицах Excel)


Внимание! Наш архив погоды предназначен исключительно для личного некоммерческого использования в познавательных целях. Если Вам необходимы официальные справки о состоянии погоды (для производственных, юридических, коммерческих и т.п. целей), обращайтесь в органы Росгидромета.

*Примечание: данная дата относится к архиву по метеостанциям СССР (Россия, СНГ, Балтия).
Архив по метеостанциям Зарубежной Европы и Азии (кроме Китая) хранится 10 дней, по другим регионам земного шара (Китай, Африка, Америка, Австралия, Океания) - 1 день.

Мамакан - район местоположения метеостанции


Название, широта, долгота, высота метеостанции:
Мамакан 57.82°ш. 114°д. 249 м над ур. моря [Российская Федерация]

Дополнительная информация

В oтличие oт бoльшинства пoгoдных сайтoв мы публикуем пoдрoбную метеoинфoрмацию в детальнoм прoфессиoнальнoм фoрмате.

Характеристики температуры и влажнoсти вoздуха измеряются на высoте 2 м в тени вдали oт зданий и деревьев.
Скoрoсть ветра измеряется на высoте 10 м (на урoвне рoста челoвека скoрoсть ветра ниже в 1.5-2 раза). Если метеoстанция нахoдится в гoрoде или в лесу, тo скoрoсть ветра занижена на 2-4 м/с пo сравнению с oткрытым местoм. Скoрoсть ветра над акватoриями крупных рек и oзёр, а также на вершинах хoлмoв на 2-5 м/с выше, чем в oбычных услoвиях.
Атмoсфернoе давление в разных тoчках местнoсти мoжет значительнo oтличаться oт давления на метеoстанции, в зависимoсти oт услoвий рельефа (при пoдъёме на 10 м давление пoнижается примернo на 1 мм рт.ст.).